Location: Aigremont
(47.7188°N, 3.8925°E)
Time: 09:27:05
(UTC+00:00)

USA 215 - Pass Details

Date: 18 February 2020
Orbit: 1098 x 1110 km, 123.0° (Epoch: 08 March)

Event Time Altitude Azimuth Distance (km) Brightness Sun altitude
Rises 02:29:23 0° 54° (NE) 3,925 7.0 -42.3°
Reaches altitude 10° 02:31:51 10° 54° (NE) 2,967 6.2 -41.9°
Enters shadow 02:35:33 37° 52° (NE) 1,646 4.4 -41.4°
